[[{"header":{"parameterUnit":"m.s-1","parameterCategory":1,"la1":30.2991,"la2":30.254,"lo1":-89.0895,"lo2":-89.0444,"dy":0.0017,"dx":0.0017,"nx":28,"ny":28,"refTime":"2025-04-01T21:00:00:Z","depth":0,"parameterNumber":2,"parameterNumberName":"U-component_of_WINDS"},"data":[0,0,0,0,0,0,0,0,0,0,0,0,0,0,0,0,0,0,0,0,0,0,0,0,0,0,0,0,0,0,0,0,0,0,0,0,0,0,0,0,0,0,0,0,0,0,0,0,0,0,0,0,0,0,0,0,0,0,-4.2327,-4.2328,0,-4.2447,-4.2448,-4.245,-4.2472,-4.2472,-4.2471,-4.247,-4.2591,-4.2595,-4.2599,0,0,0,0,0,0,0,0,0,0,0,0,0,-4.2116,-4.212,-4.2327,-4.2328,-4.233,-4.2447,-4.2449,-4.245,-4.2473,-4.2471,-4.247,-4.2469,-4.2589,-4.2594,-4.2599,0,0,0,0,0,0,0,0,0,0,0,0,0,-4.2219,-4.2121,-4.2327,-4.2355,-4.2359,-4.2447,-4.2449,-4.2451,-4.2473,-4.2471,-4.247,-4.2469,-4.2588,-4.2594,-4.26,-4.2667,0,0,-4.2619,-4.2621,0,0,0,0,0,0,0,0,-4.2213,-4.2226,-4.235,-4.2353,-4.2358,-4.2443,-4.2419,-4.2523,-4.2473,-4.243,-4.247,-4.2468,-4.2543,-4.2552,-4.2578,-4.2672,-4.2677,-4.2619,-4.2623,-4.2626,-4.2627,0,0,0,0,0,0,0,-4.2206,-4.2221,-4.2374,-4.2351,-4.2356,-4.2362,-4.2375,-4.2438,-4.2493,-4.2433,-4.2435,-4.2449,-4.2545,-4.2572,-4.2581,-4.2679,-4.2619,-4.2624,-4.2628,-4.2631,-4.2835,-4.2836,0,0,0,0,0,0,-4.2194,-4.2215,-4.2371,-4.2378,-4.228,-4.2367,-4.2381,-4.2417,-4.2492,-4.2502,-4.245,-4.245,-4.2562,-4.2574,-4.2585,-4.2668,-4.2626,-4.2631,-4.2635,-4.2833,-4.2835,-4.2837,0,0,0,0,0,0,-4.2189,-4.2207,-4.2366,-4.2297,-4.2318,-4.2372,-4.2412,-4.242,-4.2448,-4.2505,-4.2515,-4.2468,-4.2562,-4.2577,-4.2647,-4.2673,-4.2634,-4.264,-4.2831,-4.2834,-4.2836,-4.2834,0,0,0,0,0,0,-4.2183,-4.2206,-4.2231,-4.2298,-4.2321,-4.2425,-4.2414,-4.2424,-4.2459,-4.2459,-4.2524,-4.2534,-4.2562,-4.2637,-4.2653,-4.2681,-4.2645,-4.2829,-4.2832,-4.2835,-4.2832,-4.2837,-4.284,0,0,0,0,0,-4.2175,-4.2226,-4.2233,-4.2251,-4.2355,-4.2426,-4.244,-4.2471,-4.2461,-4.2487,-4.2524,-4.2532,-4.2668,-4.2644,-4.2662,-4.2692,-4.2827,-4.2831,-4.2835,-4.283,-4.2836,-4.284,0,0,0,0,0,0,-4.216,-4.2235,-4.2243,-4.2317,-4.2365,-4.243,-4.2464,-4.2476,-4.2527,-4.2526,-4.2562,-4.2577,-4.2644,-4.2676,-4.2648,-4.2761,-4.2747,-4.2754,-4.2737,-4.2743,-4.2747,-4.2737,-4.265,0,0,0,0,0,-4.2165,-4.2217,-4.228,-4.2339,-4.2363,-4.2409,-4.2441,-4.2462,-4.2513,-4.2533,-4.2575,-4.2624,-4.2678,-4.2713,-4.2765,-4.2838,-4.2852,-4.2867,-4.2871,-4.2874,-4.288,-4.292,-4.2928,-4.285,-4.285,-4.285,0,0,-4.2176,-4.2224,-4.2254,-4.2337,-4.2377,-4.2429,-4.2426,-4.2482,-4.2521,-4.2542,-4.261,-4.2643,-4.27,-4.2771,-4.2805,-4.2799,-4.2905,-4.2879,-4.2881,-4.2885,-4.2925,-4.2932,-4.2939,-4.2852,-4.2852,-4.2851,0,0,-4.2223,-4.2265,-4.2318,-4.2359,-4.2419,-4.2451,-4.2463,-4.2527,-4.255,-4.262,-4.2636,-4.2684,-4.2776,-4.2816,-4.2848,-4.2912,-4.2921,-4.2929,-4.2948,-4.2988,-4.2994,-4.2999,-4.3021,-4.3029,-4.2934,-4.2934,-4.2934,0,-4.2229,-4.2309,-4.2344,-4.2399,-4.2435,-4.2458,-4.2512,-4.2549,-4.2624,-4.2648,-4.2641,-4.2758,-4.2798,-4.2879,-4.2895,-4.2921,-4.2936,-4.292,-4.299,-4.2996,-4.3002,-4.3023,-4.3031,-4.2935,-4.2935,-4.2935,-4.2935,0,-4.2313,-4.2368,-4.2404,-4.2477,-4.2517,-4.2571,-4.2614,-4.265,-4.2668,-4.27,-4.277,-4.282,-4.2883,-4.2904,-4.2922,-4.2988,-4.2983,-4.2983,-4.2969,-4.3009,-4.3029,-4.3038,-4.2935,-4.2935,-4.2935,-4.2935,0,0,-4.235,-4.2443,-4.2455,-4.2489,-4.2559,-4.2602,-4.2658,-4.2721,-4.2751,-4.2802,-4.2849,-4.2928,-4.2929,-4.2966,-4.2988,-4.3023,-4.307,-4.3019,-4.3021,-4.3025,-4.3145,-4.3143,-4.3152,-4.3077,-4.3079,-4.308,-4.314,0,-4.2404,-4.2505,-4.2539,-4.2622,-4.2673,-4.2697,-4.2745,-4.2793,-4.2825,-4.2873,-4.2909,-4.2963,-4.2961,-4.2983,-4.3019,-4.3056,-4.3094,-4.3053,-4.312,-4.3122,-4.3103,-4.3163,-4.3161,-4.3215,-4.3148,-4.315,-4.3151,0,-4.248,-4.2533,-4.2622,-4.2686,-4.2709,-4.2752,-4.2812,-4.2859,-4.2914,-4.2935,-4.2977,-4.2997,-4.3056,-4.3041,-4.3123,-4.3094,-4.3124,-4.3147,-4.315,-4.3156,-4.3137,-4.3169,-4.3233,-4.324,-4.3164,-4.3163,-4.3162,0,-4.2497,-4.2591,-4.2656,-4.2684,-4.2761,-4.2791,-4.2824,-4.2878,-4.2914,-4.2967,-4.2991,-4.305,-4.3082,-4.3127,-4.3163,-4.3149,-4.3241,-4.3229,-4.3259,-4.3258,-4.3276,-4.3274,-4.3343,-4.3298,-4.3298,-4.3298,-4.3298,0,-4.2552,-4.2605,-4.2665,-4.2705,-4.2765,-4.2804,-4.2862,-4.2897,-4.2945,-4.2992,-4.3016,-4.3059,-4.3105,-4.3154,-4.3183,-4.3246,-4.326,-4.3278,-4.3285,-4.3275,-4.3272,-4.3293,-4.329,-4.33,-4.33,-4.3299,-4.3299,0,-4.258,-4.2623,-4.2695,-4.2763,-4.2781,-4.2822,-4.2879,-4.2919,-4.2953,-4.3012,-4.3028,-4.308,-4.314,-4.3181,-4.3257,-4.3276,-4.3344,-4.3351,-4.3325,-4.3328,-4.3355,-4.3351,-4.3439,-4.3453,-4.34,-4.34,-4.3401,0,-4.2612,-4.2653,-4.2726,-4.2759,-4.2793,-4.2846,-4.2883,-4.2924,-4.2961,-4.3028,-4.3059,-4.3121,-4.3172,-4.3266,-4.3311,-4.3369,-4.3377,-4.3404,-4.3385,-4.3374,-4.3375,-4.3372,-4.3376,-4.3405,-4.3406,-4.3406,-4.3406,0,-4.2663,-4.2682,-4.2735,-4.2796,-4.2839,-4.2889,-4.2938,-4.2964,-4.3014,-4.3055,-4.3116,-4.3156,-4.3235,-4.3295,-4.3358,-4.3392,-4.3407,-4.3412,-4.3422,-4.3411,-4.3394,-4.3403,-4.3331,-4.3409,-4.3409,-4.3409,-4.3409,-4.3409,-4.2693,-4.2731,-4.2788,-4.2846,-4.2888,-4.2934,-4.2974,-4.3014,-4.3066,-4.3133,-4.3155,-4.3218,-4.3274,-4.336,-4.3395,-4.3446,-4.3443,-4.3458,-4.3461,-4.3464,-4.3463,-4.3388,-4.3458,-4.3458,-4.3458,-4.3458,-4.3458,0,-4.2744,-4.2782,-4.2836,-4.2905,-4.2951,-4.2963,-4.3019,-4.3056,-4.3112,-4.3163,-4.3213,-4.3284,-4.3343,-4.3393,-4.3454,-4.3485,-4.3494,-4.35,-4.3497,-4.3504,-4.3462,-4.3447,-4.3492,-4.3492,-4.3492,-4.3492,-4.3492,-4.3492,-4.2776,-4.284,-4.2867,-4.2953,-4.2991,-4.3054,-4.3084,-4.3127,-4.3168,-4.3246,-4.3296,-4.3328,-4.3379,-4.3445,-4.3499,-4.3513,-4.3533,-4.3538,-4.3552,-4.3511,-4.3507,-4.3503,-4.3489,-4.3542,-4.3542,-4.359,-4.3591,-4.3591]},{"header":{"parameterUnit":"m.s-1","parameterCategory":1,"la1":30.2991,"la2":30.254,"lo1":-89.0895,"lo2":-89.0444,"dy":0.0017,"dx":0.0017,"nx":28,"ny":28,"refTime":"2025-04-01T21:00:00:Z","depth":0,"parameterNumber":3,"parameterNumberName":"V-component_of_WINDS"},"data":[0,0,0,0,0,0,0,0,0,0,0,0,0,0,0,0,0,0,0,0,0,0,0,0,0,0,0,0,0,0,0,0,0,0,0,0,0,0,0,0,0,0,0,0,0,0,0,0,0,0,0,0,0,0,0,0,0,0,5.5888,5.5889,0,5.6002,5.6003,5.6004,5.6019,5.6018,5.6017,5.6016,5.6129,5.6132,5.6136,0,0,0,0,0,0,0,0,0,0,0,0,0,5.568,5.5684,5.5888,5.5889,5.589,5.6002,5.6003,5.6005,5.602,5.6018,5.6017,5.6016,5.6127,5.6132,5.6137,0,0,0,0,0,0,0,0,0,0,0,0,0,5.578,5.5685,5.5887,5.5911,5.5915,5.6001,5.6003,5.6005,5.602,5.6018,5.6017,5.6015,5.6126,5.6131,5.6137,5.6206,0,0,5.6156,5.6158,0,0,0,0,0,0,0,0,5.5774,5.5787,5.5906,5.591,5.5914,5.5995,5.5971,5.6072,5.602,5.598,5.6016,5.6014,5.6085,5.6094,5.6119,5.6212,5.6216,5.6156,5.616,5.6162,5.6164,0,0,0,0,0,0,0,5.5767,5.5783,5.5933,5.5908,5.5913,5.5916,5.5928,5.599,5.604,5.5983,5.5985,5.5998,5.6087,5.6113,5.6122,5.6218,5.6156,5.6161,5.6165,5.6167,5.6377,5.6378,0,0,0,0,0,0,5.5756,5.5777,5.5929,5.5936,5.5839,5.5921,5.5935,5.597,5.6039,5.6048,5.5999,5.5998,5.6104,5.6115,5.6126,5.6214,5.6162,5.6168,5.6171,5.6375,5.6377,5.6379,0,0,0,0,0,0,5.5752,5.577,5.5924,5.5857,5.5877,5.5926,5.5966,5.5973,5.6,5.6052,5.606,5.6018,5.6103,5.6117,5.6187,5.6218,5.6171,5.6176,5.6372,5.6375,5.6378,5.6389,0,0,0,0,0,0,5.5746,5.5768,5.5795,5.5858,5.588,5.5985,5.5968,5.5977,5.6011,5.6011,5.6071,5.6079,5.6103,5.6178,5.6193,5.6225,5.6181,5.637,5.6374,5.6377,5.6386,5.6392,5.6397,0,0,0,0,0,5.5738,5.5792,5.5797,5.5815,5.5916,5.5986,5.5999,5.6027,5.6013,5.6041,5.6075,5.6077,5.6212,5.6185,5.6202,5.6236,5.6368,5.6373,5.6377,5.6383,5.639,5.6396,0,0,0,0,0,0,5.5729,5.58,5.5806,5.5882,5.5928,5.5989,5.6024,5.6033,5.6083,5.608,5.6111,5.6124,5.6193,5.6222,5.6191,5.6309,5.6289,5.6297,5.6288,5.6295,5.63,5.6293,5.6186,0,0,0,0,0,5.5737,5.579,5.5848,5.5909,5.5932,5.5974,5.6006,5.6024,5.6072,5.6092,5.613,5.6176,5.623,5.6263,5.6315,5.639,5.6404,5.6422,5.6427,5.6431,5.6438,5.6483,5.6492,5.6394,5.6394,5.6394,0,0,5.5751,5.5797,5.5827,5.5908,5.5946,5.6001,5.5991,5.6047,5.6088,5.61,5.617,5.6199,5.6253,5.6327,5.6361,5.6352,5.6469,5.6437,5.644,5.6445,5.6488,5.6498,5.6506,5.6397,5.6396,5.6396,0,0,5.5806,5.5845,5.5902,5.5941,5.6,5.6028,5.6042,5.6102,5.6123,5.6194,5.6205,5.6253,5.6343,5.6382,5.6413,5.6486,5.6492,5.6502,5.653,5.6573,5.6581,5.6588,5.6617,5.6626,5.6508,5.6508,5.6508,0,5.5816,5.5899,5.5929,5.5987,5.6023,5.6039,5.6097,5.6133,5.6204,5.6229,5.6218,5.6334,5.6371,5.6456,5.6474,5.6498,5.6515,5.6495,5.6578,5.6585,5.6592,5.662,5.663,5.6509,5.6509,5.6509,5.6509,0,5.591,5.5968,5.6006,5.6079,5.6119,5.6176,5.6214,5.6251,5.6265,5.6295,5.6368,5.6413,5.6476,5.6496,5.6509,5.6584,5.6577,5.6572,5.6553,5.6602,5.6629,5.6639,5.6511,5.651,5.651,5.651,0,0,5.5962,5.6052,5.6066,5.6101,5.6168,5.6213,5.6271,5.6334,5.6366,5.6415,5.6466,5.6543,5.654,5.6576,5.6594,5.6632,5.669,5.6622,5.6624,5.6635,5.6777,5.6782,5.6794,5.6694,5.6696,5.6697,5.6774,0,5.6026,5.6133,5.6163,5.6253,5.6308,5.6325,5.6376,5.6423,5.6452,5.6502,5.6534,5.6589,5.658,5.6602,5.664,5.6675,5.6719,5.6669,5.6742,5.6744,5.673,5.6807,5.6812,5.6882,5.6784,5.6785,5.6787,0,5.6115,5.617,5.6267,5.633,5.6354,5.64,5.6462,5.6509,5.6563,5.6582,5.6624,5.6639,5.6701,5.6678,5.6765,5.673,5.6762,5.6783,5.6787,5.6796,5.6769,5.682,5.6904,5.6916,5.6803,5.6801,5.68,0,5.6147,5.6244,5.6315,5.6343,5.6418,5.6451,5.6483,5.6536,5.6573,5.6626,5.6651,5.671,5.6743,5.6788,5.6819,5.6799,5.6904,5.6883,5.6922,5.6922,5.6944,5.6943,5.7037,5.6961,5.6961,5.6961,5.6961,0,5.6217,5.6275,5.6331,5.6374,5.6441,5.6475,5.654,5.6573,5.662,5.6671,5.6687,5.6734,5.6772,5.6824,5.6848,5.6918,5.6932,5.6949,5.6955,5.6949,5.6947,5.6971,5.6967,5.6964,5.6963,5.6963,5.6962,0,5.6263,5.6302,5.6381,5.6447,5.6465,5.6512,5.6568,5.6611,5.6642,5.6706,5.6723,5.6771,5.6833,5.6869,5.6946,5.6963,5.7041,5.7044,5.7024,5.7027,5.7065,5.7062,5.7179,5.7197,5.7108,5.7108,5.7109,0,5.6306,5.6352,5.6424,5.6461,5.6494,5.6552,5.6591,5.6626,5.6666,5.6732,5.6768,5.6832,5.6885,5.6984,5.7026,5.7086,5.7091,5.7128,5.71,5.7094,5.7095,5.7093,5.7098,5.7133,5.7134,5.7135,5.7135,0,5.6379,5.6397,5.6453,5.6518,5.6564,5.6616,5.6667,5.6695,5.6739,5.6782,5.6848,5.689,5.6971,5.7035,5.7099,5.7132,5.7142,5.7144,5.7157,5.7152,5.7139,5.7149,5.7039,5.7141,5.7141,5.714,5.714,5.714,5.6426,5.647,5.6528,5.6591,5.6634,5.6682,5.6728,5.6765,5.6821,5.6892,5.6908,5.6978,5.7033,5.712,5.7155,5.721,5.7203,5.7221,5.7226,5.723,5.7233,5.7129,5.7221,5.7221,5.7221,5.7221,5.7221,0,5.6503,5.6542,5.66,5.6672,5.6722,5.6729,5.6786,5.6828,5.6889,5.694,5.6994,5.707,5.7133,5.718,5.7244,5.7279,5.7285,5.7295,5.7294,5.7302,5.7234,5.7218,5.7289,5.7289,5.7289,5.7289,5.7289,5.7289,5.6548,5.6623,5.6648,5.6745,5.6783,5.6853,5.6886,5.6931,5.6972,5.7058,5.7111,5.7142,5.7192,5.7261,5.7319,5.7331,5.7355,5.7364,5.7377,5.7313,5.7306,5.7299,5.7284,5.7369,5.7369,5.7441,5.7442,5.7442]}]]